Regional Weather Roundup
Issued by NWS Charleston, SC

Current Version | Previous Version | Graphics & Text | Print | Product List | Glossary On
Versions: 1 2 3 4 5 6 7 8 9 10 11 12 13 14 15 16 17 18 19 20 21 22 23 24 25 26 27 28 29 30 31 32 33 34 35 36 37 38 39 40 41 42 43 44 45 46 47 48 49 50
000 ASUS42 KCHS 220410 RWRCHS REGIONAL WEATHER ROUNDUP NATIONAL WEATHER SERVICE CHARLESTON SC 1200 AM EDT MON SEP 22 2014 NOTE: "FAIR" INDICATES FEW OR NO CLOUDS BELOW 12,000 FEET WITH NO SIGNIFICANT WEATHER AND/OR OBSTRUCTIONS TO VISIBILITY. NOT ALL STATIONS ARE QUALITY CONTROLLED BY THE NATIONAL WEATHER SERVICE. USE DATA WITH CAUTION...ESPECIALLY DEWPOINT OBSERVATIONS. SCZ027-030-031-034>040-042>050-220500- ...SOUTH CAROLINA... CITY SKY/WX TMP DP RH WIND PRES REMARKS N CHARLESTON CLEAR 74 68 81 SW8 29.96F WATERFRONT PRK NOT AVBL FORT JOHNSON NOT AVBL MOUNT PLEASANT FAIR 77 72 83 SW6 29.96F JOHNS ISLAND CLEAR 77 75 94 CALM 29.97S PINOPOLIS N/A 79 66 65 SW9 29.87F MONCKS CORNER N/A 75 68 78 SW3 29.95F SUMMERVILLE NOT AVBL BEAUFORT MCAS CLEAR 73 67 81 SE8 29.97F BEAUFORT ARPT FAIR 77 70 78 SW7 29.97S HILTON HEAD IS CLEAR 73 70 88 S5 29.99S GEORGETOWN NOT AVBL WALTERBORO CLEAR 72 64 78 S3 29.97S ORANGEBURG CLEAR 70 64 81 SW8 29.95F BARNWELL FAIR 73 64 73 SW7 29.97S AIKEN FAIR 73 64 73 SW6 29.98S MANNING FAIR 77 68 73 SW5 29.94S KINGSTREE NOT AVBL COLUMBIA CLOUDY 77 62 59 SW7 29.92S SUMTER CLEAR 75 65 70 SW10 29.91S FLORENCE CLEAR 74 65 73 SW7 29.92R MYRTLE BEACH CLEAR 77 64 65 SW10 29.93F N MYRTLE BEACH CLEAR 78 64 61 SW12 29.92S $$ GAZ063-065-086>088-099>101-113>116-118-119-134-136>141-150-220500- ...GEORGIA... CITY SKY/WX TMP DP RH WIND PRES REMARKS SAVANNAH ARPT CLEAR 73 64 73 SW6 29.99S HUNTER AAF CLEAR 73 67 80 SW6 29.97S FORT STEWART CLEAR 69 62 78 CALM 29.98S STATESBORO NOT AVBL SYLVANIA CLEAR 75 69 83 CALM 29.99S CLAXTON FAIR 68 68 100 CALM 29.99S THOMSON CLEAR 77 68 75 CALM 29.99F AUGUSTA-BUSH CLEAR 74 62 66 SW5 29.94F AUGUSTA-DANIEL CLEAR 76 62 62 SW3 29.96S SWAINSBORO FAIR 73 64 73 CALM 29.99S VIDALIA CLEAR 70 63 78 SW3 30.00R ALMA CLEAR 65 62 90 CALM 30.00F WAYCROSS NOT AVBL JESUP FAIR 72 64 78 CALM 30.01R BRUNSWICK CLEAR 72 63 73 SW5 30.01S SAINT SIMONS CLEAR 75 65 70 SW8 30.01S $$ SCZ027-028-034-036>038-045-046-048>050-GAZ119-141-220500- ...LAKE AND SUPPLEMENTAL COASTAL OBSERVATIONS... STATION/POSITION TIME TEMP WIND PRES WAVE SWELL AIR SEA DIR/SP/G HT/PER HT/PER/DIR (UTC) (F) (DEG/KT/KT) (MB) (FT/S) (FT/S/D) UPR LAKE MARION NOT AVBL WINYAH BAY 0300 77 230/ 7 1014.0S LAKE MURRAY 0300 80 240/ 11/ 15 1012.5S ACE BASIN NERRS 0300 74 CALM 1015.0S FORT PULASKI 0400 76 220/ 3/ 5 1015.6R SAPELO ISLAND 0300 75 200/ 6 1016.0S $$ ANZ835-935-AMZ111-154-330-350-352-354-374-450-454-472-220500- ...C-MAN AND BUOY OBSERVATIONS... STATION/POSITION TIME TEMP WIND PRES WAVE SWELL AIR SEA DIR/SP/G HT/PER HT/PER/DIR (UTC) (F) (DEG/KT/KT) (MB) (FT/S) (FT/S/D) FOLLY BEACH CMAN 0300 80 230/ 11/ 14 1015.2R BUOY 41004 0400 81 81 230/ 16/ 19 1014.1F 4/ 4 2/ 9 BUOY 41008 0400 82 83 210/ 16/ 19 1015.5F 2/ 3 2/110/10 5E ST. MARYS GA 0400 83 N/A 2/10 2/ 70/11 FRYING PAN BUOY NOT AVBL BUOY 41025 0400 80 230/ 23/ 27 1011.0R 6/ 9 3/130/ 9 CAPE LOOKOUT NC 0300 79 240/ 12/ 16 1011.9F BUOY 41002 0345 80 81 250/ 14/ 17 1015.8R 8/ 8 7/360/ 8 BUOY 41010 0400 81 85 170/ 6/ 10 1016.9F 5/ 9 5/ 20/ 9 BUOY 41012 NOT AVBL ST AUGUSTINE FL 0400 79 200/ 5/ 6 1017.8R CAPERS NEARSHORE 0300 80 240/ 14/ 17 N/A FRIPP NEARSHORE NOT AVBL $$

USA.gov is the U.S. government's official web portal to all federal, state and local government web resources and services.